Radiation Dose at Monitoring Post of Fukushima Daini Nuclear Power Station
Date,Time,MP-1(microSv/h),MP-2(microSv/h),MP-3(microSv/h),MP-4(microSv/h),MP-5(microSv/h),MP-6(microSv/h),MP-7(microSv/h),Wind Direction,Wind Velocity(m/s),Rain
2020/06/03,00:00,0.187,0.176,0.272,0.262,0.261,0.152,0.098,west,7.8,Yes
2020/06/03,00:10,0.188,0.175,0.273,0.262,0.259,0.153,0.098,west,6.0,Yes
2020/06/03,00:20,0.187,0.175,0.272,0.261,0.261,0.152,0.097,west-northwest,5.7,No
2020/06/03,00:30,0.186,0.171,0.270,0.260,0.258,0.151,0.096,west-northwest,7.5,Yes
2020/06/03,00:40,0.184,0.172,0.269,0.258,0.258,0.149,0.095,northwest,6.8,Yes
2020/06/03,00:50,0.183,0.169,0.268,0.257,0.257,0.148,0.094,northwest,7.4,Yes
2020/06/03,01:00,0.180,0.168,0.265,0.255,0.253,0.147,0.093,north-northwest,6.3,Yes
2020/06/03,01:10,0.181,0.166,0.264,0.255,0.253,0.146,0.092,north,5.9,No
2020/06/03,01:20,0.177,0.165,0.262,0.252,0.251,0.142,0.090,north-northwest,5.3,No
2020/06/03,01:30,0.178,0.163,0.262,0.252,0.251,0.142,0.089,north-northwest,5.7,No
2020/06/03,01:40,0.175,0.163,0.259,0.250,0.248,0.141,0.088,north-northwest,6.1,No
2020/06/03,01:50,0.175,0.160,0.261,0.249,0.249,0.141,0.088,north-northwest,5.1,Yes
2020/06/03,02:00,0.173,0.161,0.258,0.248,0.247,0.141,0.088,north,3.9,Yes
2020/06/03,02:10,0.175,0.160,0.259,0.248,0.250,0.142,0.089,north,3.9,Yes
2020/06/03,02:20,0.176,0.163,0.260,0.250,0.250,0.144,0.091,north,3.1,Yes
2020/06/03,02:30,0.176,0.162,0.260,0.251,0.252,0.144,0.091,north,2.2,No
2020/06/03,02:40,0.175,0.161,0.258,0.248,0.249,0.143,0.090,north,1.7,No
2020/06/03,02:50,0.175,0.161,0.258,0.248,0.250,0.142,0.089,north,1.3,Yes
2020/06/03,03:00,0.173,0.160,0.257,0.248,0.248,0.143,0.088,north-northwest,0.8,Yes
2020/06/03,03:10,0.173,0.159,0.257,0.246,0.249,0.140,0.088,north-northeast,1.0,No
2020/06/03,03:20,0.173,0.159,0.255,0.245,0.245,0.140,0.087,north,0.8,No
2020/06/03,03:30,0.172,0.158,0.255,0.246,0.247,0.139,0.086,-,CALM,No
2020/06/03,03:40,0.173,0.156,0.255,0.244,0.245,0.139,0.085,-,CALM,No
2020/06/03,03:50,0.170,0.158,0.255,0.244,0.245,0.137,0.085,west-northwest,0.9,No
2020/06/03,04:00,0.171,0.156,0.253,0.244,0.246,0.137,0.084,north-northwest,2.0,No
2020/06/03,04:10,0.170,0.157,0.255,0.246,0.244,0.137,0.084,northwest,2.3,No
2020/06/03,04:20,0.173,0.157,0.253,0.243,0.245,0.137,0.083,northwest,1.9,No
2020/06/03,04:30,0.170,0.157,0.255,0.243,0.244,0.136,0.083,north-northwest,2.5,No
2020/06/03,04:40,0.171,0.156,0.253,0.243,0.247,0.136,0.083,north-northwest,2.4,No
2020/06/03,04:50,0.170,0.156,0.255,0.244,0.244,0.137,0.084,north-northeast,2.8,No
2020/06/03,05:00,0.171,0.157,0.253,0.242,0.246,0.135,0.083,north-northwest,1.0,No
2020/06/03,05:10,0.171,0.156,0.255,0.244,0.243,0.137,0.083,north,1.6,No
2020/06/03,05:20,0.171,0.157,0.252,0.242,0.246,0.136,0.083,north-northwest,0.9,No
2020/06/03,05:30,0.170,0.156,0.255,0.245,0.244,0.137,0.083,north,0.6,No
2020/06/03,05:40,0.171,0.157,0.252,0.243,0.245,0.136,0.083,-,CALM,No
2020/06/03,05:50,0.170,0.156,0.255,0.244,0.243,0.136,0.083,northwest,0.8,No
2020/06/03,06:00,0.170,0.157,0.253,0.242,0.244,0.136,0.082,west,0.6,No
2020/06/03,06:10,0.171,0.156,0.253,0.243,0.245,0.135,0.083,west-northwest,0.6,No
2020/06/03,06:20,0.171,0.156,0.253,0.243,0.244,0.136,0.083,west,0.6,No
2020/06/03,06:30,0.171,0.155,0.254,0.243,0.245,0.135,0.082,-,CALM,No
2020/06/03,06:40,0.170,0.156,0.254,0.243,0.243,0.136,0.083,-,CALM,No
2020/06/03,06:50,0.172,0.156,0.252,0.243,0.245,0.135,0.083,west,0.6,No
2020/06/03,07:00,0.171,0.154,0.255,0.245,0.244,0.136,0.082,-,CALM,No
2020/06/03,07:10,0.171,0.156,0.252,0.243,0.242,0.136,0.083,-,CALM,No
2020/06/03,07:20,0.171,0.155,0.250,0.242,0.246,0.136,0.083,-,CALM,No
2020/06/03,07:30,0.168,0.156,0.250,0.245,0.244,0.136,0.082,south-southwest,0.6,No
2020/06/03,07:40,0.171,0.155,0.253,0.243,0.242,0.136,0.082,-,CALM,No
2020/06/03,07:50,0.171,0.156,0.254,0.241,0.244,0.135,0.083,south,1.0,No
2020/06/03,08:00,0.168,0.156,0.253,0.241,0.244,0.136,0.083,southeast,1.0,No
2020/06/03,08:10,0.171,0.155,0.252,0.244,0.242,0.137,0.083,southeast,0.7,No
2020/06/03,08:20,0.171,0.155,0.252,0.244,0.242,0.134,0.081,east-southeast,1.4,No
2020/06/03,08:30,0.170,0.157,0.253,0.242,0.244,0.136,0.082,east-southeast,2.2,No
2020/06/03,08:40,0.172,0.156,0.256,0.241,0.245,0.136,0.083,east,1.3,No
2020/06/03,08:50,0.172,0.155,0.254,0.241,0.244,0.138,0.083,east-northeast,1.9,No
2020/06/03,09:00,0.170,0.156,0.254,0.243,0.243,0.135,0.083,east-northeast,1.8,No
2020/06/03,09:10,0.171,0.157,0.253,0.245,0.242,0.136,0.083,east-northeast,1.9,No
2020/06/03,09:20,0.172,0.155,0.256,0.245,0.246,0.137,0.083,east-northeast,1.8,No
2020/06/03,09:30,0.171,0.155,0.256,0.242,0.247,0.137,0.083,east-northeast,1.6,No
2020/06/03,09:40,0.170,0.158,0.255,0.243,0.244,0.136,0.083,east,1.6,No
2020/06/03,09:50,0.170,0.157,0.253,0.243,0.244,0.135,0.083,east,1.2,No
2020/06/03,10:00,0.172,0.156,0.253,0.242,0.243,0.137,0.082,east,1.8,No
2020/06/03,10:10,0.171,0.156,0.257,0.244,0.245,0.136,0.084,east-northeast,3.1,No
2020/06/03,10:20,0.169,0.157,0.256,0.248,0.248,0.137,0.083,east-northeast,2.0,No
2020/06/03,10:30,0.172,0.157,0.254,0.246,0.246,0.137,0.083,east,1.6,No
2020/06/03,10:40,0.173,0.155,0.255,0.244,0.243,0.136,0.083,east,0.9,No
2020/06/03,10:50,0.170,0.157,0.257,0.243,0.245,0.137,0.083,east,2.0,No
2020/06/03,11:00,0.171,0.157,0.254,0.246,0.246,0.136,0.083,east,2.1,No
2020/06/03,11:10,0.172,0.156,0.255,0.246,0.246,0.135,0.082,east,2.0,No
2020/06/03,11:20,0.171,0.156,0.259,0.245,0.242,0.136,0.084,southeast,0.7,No
2020/06/03,11:30,0.171,0.157,0.255,0.245,0.245,0.137,0.084,southeast,1.6,No
2020/06/03,11:40,0.171,0.156,0.254,0.247,0.249,0.137,0.083,east-southeast,1.3,No
2020/06/03,11:50,0.171,0.155,0.257,0.246,0.246,0.136,0.082,southeast,1.6,No
2020/06/03,12:00,0.170,0.157,0.256,0.244,0.243,0.136,0.083,east-southeast,1.8,No
2020/06/03,12:10,0.171,0.157,0.255,0.243,0.242,0.137,0.084,southeast,1.4,No
2020/06/03,12:20,0.173,0.155,0.253,0.246,0.243,0.137,0.083,southeast,1.8,No
2020/06/03,12:30,0.172,0.155,0.253,0.248,0.246,0.136,0.082,southeast,2.3,No
2020/06/03,12:40,0.171,0.157,0.255,0.246,0.246,0.136,0.083,southeast,2.5,No
2020/06/03,12:50,0.169,0.157,0.259,0.246,0.246,0.136,0.082,southeast,2.7,No
2020/06/03,13:00,0.169,0.157,0.258,0.245,0.244,0.137,0.082,southeast,2.5,No
2020/06/03,13:10,0.169,0.157,0.256,0.244,0.245,0.136,0.083,southeast,2.3,No
2020/06/03,13:20,0.171,0.155,0.255,0.244,0.244,0.136,0.083,east-southeast,1.9,No
2020/06/03,13:30,0.173,0.156,0.254,0.247,0.244,0.139,0.083,east-southeast,2.3,No
2020/06/03,13:40,0.172,0.156,0.256,0.248,0.245,0.137,0.083,southeast,2.4,No
2020/06/03,13:50,0.171,0.157,0.258,0.248,0.247,0.138,0.082,southeast,0.7,No
2020/06/03,14:00,0.171,0.157,0.260,0.246,0.247,0.137,0.082,south-southeast,1.2,No
2020/06/03,14:10,0.169,0.157,0.258,0.245,0.246,0.137,0.083,south-southeast,2.1,No
2020/06/03,14:20,0.169,0.156,0.256,0.245,0.245,0.137,0.084,south-southeast,2.0,No
2020/06/03,14:30,0.170,0.157,0.254,0.245,0.246,0.138,0.083,south-southeast,2.4,No
2020/06/03,14:40,0.172,0.157,0.255,0.248,0.245,0.137,0.082,south,1.5,No
2020/06/03,14:50,0.173,0.158,0.259,0.248,0.244,0.138,0.083,south,1.9,No
2020/06/03,15:00,0.171,0.157,0.260,0.247,0.245,0.138,0.083,south-southeast,2.5,No
2020/06/03,15:10,0.171,0.156,0.258,0.245,0.244,0.138,0.083,south-southeast,2.3,No
2020/06/03,15:20,0.171,0.158,0.257,0.247,0.246,0.137,0.083,southeast,1.5,No
2020/06/03,15:30,0.173,0.158,0.259,0.249,0.250,0.137,0.083,south-southeast,2.4,No
2020/06/03,15:40,0.173,0.157,0.259,0.247,0.247,0.137,0.083,southeast,1.9,No
2020/06/03,15:50,0.171,0.157,0.257,0.246,0.244,0.137,0.083,south-southeast,1.5,No
2020/06/03,16:00,0.171,0.157,0.259,0.250,0.247,0.139,0.083,south-southeast,1.1,No
2020/06/03,16:10,0.172,0.156,0.261,0.247,0.248,0.136,0.083,south-southeast,2.0,No
2020/06/03,16:20,0.172,0.157,0.256,0.246,0.246,0.137,0.083,south-southeast,1.6,No
2020/06/03,16:30,0.171,0.159,0.259,0.249,0.245,0.138,0.082,southeast,0.9,No
2020/06/03,16:40,0.173,0.156,0.258,0.247,0.249,0.137,0.084,south,0.7,No
2020/06/03,16:50,0.172,0.158,0.258,0.247,0.246,0.136,0.083,south-southeast,1.2,No
2020/06/03,17:00,0.172,0.158,0.261,0.249,0.246,0.138,0.083,southeast,2.3,No
2020/06/03,17:10,0.173,0.157,0.259,0.247,0.249,0.137,0.083,south-southeast,2.9,No
2020/06/03,17:20,0.172,0.158,0.258,0.248,0.246,0.137,0.083,south,2.7,No
2020/06/03,17:30,0.172,0.156,0.261,0.248,0.244,0.137,0.082,south,2.8,No
2020/06/03,17:40,0.172,0.158,0.258,0.248,0.248,0.136,0.084,south-southeast,2.6,No
2020/06/03,17:50,0.172,0.157,0.258,0.249,0.248,0.137,0.084,southeast,1.0,No
2020/06/03,18:00,0.172,0.157,0.259,0.248,0.245,0.137,0.083,-,CALM,No
2020/06/03,18:10,0.173,0.158,0.258,0.248,0.248,0.137,0.083,-,CALM,No
2020/06/03,18:20,0.172,0.157,0.260,0.248,0.247,0.138,0.083,-,CALM,No
2020/06/03,18:30,0.173,0.158,0.258,0.247,0.245,0.137,0.084,south-southeast,1.6,No
2020/06/03,18:40,0.172,0.157,0.259,0.248,0.248,0.137,0.083,south-southeast,1.5,No
2020/06/03,18:50,0.171,0.158,0.260,0.247,0.246,0.138,0.084,south,2.0,No
2020/06/03,19:00,0.173,0.158,0.258,0.249,0.249,0.137,0.083,south-southwest,2.1,No
2020/06/03,19:10,0.171,0.158,0.260,0.249,0.247,0.138,0.083,south,2.7,No
2020/06/03,19:20,0.174,0.158,0.259,0.249,0.248,0.137,0.083,south-southwest,1.7,No
2020/06/03,19:30,0.172,0.157,0.259,0.249,0.247,0.137,0.083,south,2.7,No
2020/06/03,19:40,0.172,0.159,0.259,0.249,0.247,0.137,0.084,south,2.4,No
2020/06/03,19:50,0.173,0.158,0.260,0.249,0.249,0.137,0.083,south,2.1,No
2020/06/03,20:00,0.172,0.158,0.257,0.248,0.245,0.137,0.084,south,2.8,No
2020/06/03,20:10,0.172,0.157,0.260,0.249,0.249,0.138,0.083,south-southeast,3.0,No
2020/06/03,20:20,0.172,0.158,0.259,0.247,0.247,0.137,0.084,south,2.8,No
2020/06/03,20:30,0.173,0.158,0.260,0.249,0.248,0.137,0.083,south,3.2,No
2020/06/03,20:40,0.172,0.158,0.260,0.248,0.248,0.138,0.083,south,3.1,No
2020/06/03,20:50,0.173,0.158,0.259,0.249,0.246,0.137,0.083,south,3.2,No
2020/06/03,21:00,0.173,0.158,0.259,0.246,0.247,0.137,0.083,south,3.3,No
2020/06/03,21:10,0.172,0.157,0.258,0.250,0.246,0.137,0.084,south-southwest,3.1,No
2020/06/03,21:20,0.173,0.158,0.260,0.248,0.249,0.138,0.083,south,3.0,No
2020/06/03,21:30,0.173,0.159,0.260,0.249,0.246,0.137,0.083,south,3.4,No
2020/06/03,21:40,0.173,0.158,0.261,0.248,0.249,0.136,0.082,south,3.8,No
2020/06/03,21:50,0.173,0.157,0.258,0.248,0.246,0.137,0.083,south,3.6,No
2020/06/03,22:00,0.173,0.159,0.260,0.247,0.248,0.137,0.084,south,2.9,No
2020/06/03,22:10,0.172,0.158,0.260,0.248,0.246,0.138,0.084,south,2.6,No
2020/06/03,22:20,0.173,0.157,0.260,0.249,0.248,0.138,0.084,south-southeast,3.7,No
2020/06/03,22:30,0.171,0.159,0.259,0.249,0.246,0.138,0.083,south,3.6,Yes
2020/06/03,22:40,0.172,0.157,0.261,0.248,0.248,0.138,0.083,south,3.6,No
2020/06/03,22:50,0.173,0.158,0.258,0.248,0.248,0.137,0.084,south-southwest,2.6,No
2020/06/03,23:00,0.171,0.159,0.260,0.248,0.247,0.137,0.083,south-southwest,2.6,No
2020/06/03,23:10,0.173,0.157,0.258,0.249,0.248,0.137,0.084,southwest,2.8,No
2020/06/03,23:20,0.171,0.158,0.260,0.248,0.247,0.139,0.084,southwest,1.4,No
2020/06/03,23:30,0.173,0.158,0.259,0.249,0.249,0.137,0.084,west-southwest,1.0,No
2020/06/03,23:40,0.172,0.158,0.261,0.249,0.247,0.139,0.085,northwest,1.5,No
2020/06/03,23:50,0.174,0.159,0.260,0.250,0.248,0.138,0.084,northwest,2.4,No
